This demonstration page uses our WeatherBlox Daily Observations layout. Learn more.

Left ArrowRight Arrow

Hourly Observations for August 28, 2020

Temp ( °F °C ) Dew Point ( °F °C ) Humidity (%) Winds ( mph kmh ) Pressure ( in mb ) Visibility ( mi km ) Precip ( " mm )
12:53 am 00:53 Clear 75 23.9 74 23.3 96 96 N N/A 29.95 1014 8 12.87472 0.001 0.001
1:53 am 01:53 Clear 75 23.9 74 23.3 96 96 N N/A 29.94 1014 7 11.26538 N/A
2:53 am 02:53 Clear 75 23.9 73 22.8 94 94 N N/A 29.93 1013 8 12.87472 N/A
3:53 am 03:53 Clear with Mist and Fog 74 23.3 73 22.8 97 97 N N/A 29.91 1013 6 9.65604 N/A
4:53 am 04:53 Clear 75 23.9 73 22.8 94 94 N N/A 29.91 1013 8 12.87472 N/A
5:53 am 05:53 Clear with Mist and Fog 73 22.8 71 21.7 94 94 N N/A 29.89 1012 5 8.0467 N/A
6:53 am 06:53 Clear 75 23.9 74 23.3 96 96 N N/A 29.89 1012 8 12.87472 N/A
7:53 am 07:53 Sunny 76 24.4 74 23.3 94 94 N N/A 29.91 1013 10 16.0934 N/A
8:53 am 08:53 Sunny 78 25.6 75 23.9 90 90 N N/A 29.91 1013 10 16.0934 N/A
9:53 am 09:53 Sunny 82 27.8 74 23.3 77 77 N N/A 29.91 1013 10 16.0934 N/A
10:53 am 10:53 Mostly Sunny 83 28.3 74 23.3 74 74 N N/A 29.91 1013 10 16.0934 N/A
11:53 am 11:53 Mostly Sunny 84 28.9 74 23.3 72 72 SW 8 13 29.9 1012 10 16.0934 N/A
12:41 pm 12:41 Mostly Cloudy with Nearby Thunderstorms 82 27.8 75 23.9 79 79 VRB 3 6 29.86 1011 2.5 4.02335 0.04 1.016
12:48 pm 12:48 Mostly Cloudy with Nearby Thunderstorms 81 27 75 24 84 84 VRB 3 6 29.86 1011 1.25 2.011675 0.05 1.27
12:53 pm 12:53 Mostly Cloudy with Nearby Thunderstorms 80 26.7 75 23.9 85 85 WSW 5 7 29.87 1011 7 11.26538 0.05 1.27
1:03 pm 13:03 Mostly Cloudy with Rain 78 25.6 75 23.9 90 90 SSW 8 13 29.86 1011 2.5 4.02335 0.02 0.508
1:11 pm 13:11 Cloudy with Nearby Thunderstorms 76 24.4 72 22.2 88 88 VRB 7 11 29.86 1011 1.75 2.816345 0.05 1.27
1:18 pm 13:18 Mostly Cloudy with Nearby Thunderstorms 77 25 73 22.8 88 88 VRB 6 9 29.85 1011 1.5 2.41401 0.08 2.032
1:21 pm 13:21 Mostly Cloudy with Nearby Thunderstorms 78 25.6 74 23.3 87 87 VRB 6 9 29.85 1011 2.5 4.02335 0.08 2.032
1:28 pm 13:28 Mostly Cloudy 79 26.1 75 23.9 88 88 VRB 5 7 29.84 1011 10 16.0934 0.08 2.032
1:49 pm 13:49 Partly Cloudy with Nearby Thunderstorms 82 28 77 25 84 84 SW 8 13 29.83 1010 10 16.0934 0.08 2.032
1:53 pm 13:53 Partly Cloudy with Nearby Thunderstorms 82 27.8 76 24.4 82 82 VRB 5 7 29.84 1011 10 16.0934 0.08 2.032
2:04 pm 14:04 Sunny 83 28.3 74 23.3 74 74 SW 10 17 29.83 1010 10 16.0934 N/A
2:53 pm 14:53 Mostly Cloudy with Light Rain 78 25.6 72 22.2 82 82 SW 6 9 29.83 1010 5 8.0467 0.01 0.254
3:06 pm 15:06 Cloudy with Rain 76 24.4 72 22.2 88 88 VRB 5 7 29.83 1010 2 3.21868 0.03 0.762
3:20 pm 15:20 Cloudy with Nearby Thunderstorms 75 23.9 73 22.8 94 94 VRB 5 7 29.79 1009 2.5 4.02335 0.06 1.524
3:29 pm 15:29 Cloudy with Light Rain 75 23.9 73 22.8 94 94 VRB 5 7 29.77 1008 4 6.43736 0.08 2.032
3:53 pm 15:53 Partly Cloudy 77 25 74 23.3 90 90 W 3 6 29.77 1008 10 16.0934 0.09 2.286
4:53 pm 16:53 Mostly Sunny 81 27.2 74 23.3 79 79 N N/A 29.77 1008 10 16.0934 N/A
5:53 pm 17:53 Sunny 83 28.3 74 23.3 74 74 N N/A 29.77 1008 10 16.0934 N/A
6:53 pm 18:53 Partly Cloudy 80 26.7 74 23.3 82 82 VRB 3 6 29.76 1008 10 16.0934 N/A
7:53 pm 19:53 Sunny 78 25.6 74 23.3 87 87 N N/A 29.76 1008 10 16.0934 N/A
8:53 pm 20:53 Clear 78 25.6 73 22.8 85 85 N N/A 29.75 1007 10 16.0934 N/A
9:53 pm 21:53 Mostly Cloudy 77 25 72 22.2 85 85 N N/A 29.76 1008 10 16.0934 N/A
10:53 pm 22:53 Mostly Cloudy 76 24.4 72 22.2 88 88 N N/A 29.75 1008 10 16.0934 N/A
11:14 pm 23:14 Partly Cloudy 75 23.9 71 21.7 88 88 VRB 5 7 29.74 1007 10 16.0934 N/A
11:53 pm 23:53 Clear 74 23.3 70 21.1 88 88 N N/A 29.73 1007 10 16.0934 N/A

Powered by AerisWeather